カタログに戻る

FENGYUN 1C DEB

運用中LEO
NORAD 30622·DEBRIS·🇨🇳 China

打ち上げ May 10, 1999 から Taiyuan Satellite Launch Center

Loading…

次のパス (今後24時間)

TLE

最新Source: Space-Track

元期: Sep 14, 2026, 04:42 UTC

1 30622U 99025AND 26257.19593700  .00004068  00000-0  14136-2 0  9999
2 30622 100.9927 347.3914 0066076 345.8529  44.4275 14.35047331727446

AllMySatでFENGYUN 1C DEBをリアルタイム追跡

Download on the App Store